Location: Falciano
(43.5833°N, 11.9000°E)
Time: 05:52:05
(UTC+00:00)

Daily predictions for brighter satellites

Satellite Brightness Start Highest point End
(mag) Time Altitude Azimuth Time Altitude Azimuth Time Altitude Azimuth
SJ 16-02 4.0 00:03:06 11° E 00:03:06 11° E 00:04:05 10° ENE
SL-16 R/B 4.3 00:04:53 10° N 00:09:24 24° NE 00:13:54 10° ESE
Cosmos 1777 Rocket 4.5 00:12:23 55° ENE 00:12:23 55° ENE 00:16:55 10° NNE
Cosmos 1025 Rocket 4.2 00:09:21 10° N 00:12:13 40° N 00:12:13 40° N
NOSS 0 Rocket 3.8 00:09:24 10° NNW 00:15:42 89° ENE 00:15:54 85° SE
CZ-2D R/B 3.1 00:11:16 10° NNE 00:16:20 36° E 00:16:30 36° E
Lacrosse 4 Rocket 3.4 00:17:22 22° NW 00:17:22 22° NW 00:20:21 10° N
COSMOS 2428 3.4 00:12:36 10° NW 00:16:52 43° WNW 00:16:52 43° WNW
GEOS 3 Rocket 3.7 00:12:58 10° NE 00:18:01 76° ENE 00:18:01 76° ENE
ADEOS II 4.2 00:16:11 10° NE 00:19:14 15° E 00:20:30 14° ESE
Cosmos 2360 Rocket 4.4 00:16:24 10° WNW 00:17:41 13° WNW 00:17:41 13° WNW
Cosmos 2026 Rocket 4.1 00:22:51 10° N 00:28:55 65° E 00:29:55 56° SE
Cosmos 1536 Rocket 4.5 00:25:06 10° N 00:28:12 46° N 00:28:12 46° N
Cosmos 2297 Rocket 2.3 00:30:52 66° ESE 00:30:52 66° ESE 00:36:23 10° NNE
Cosmos 1634 Rocket 4.0 00:31:21 64° SE 00:32:05 71° E 00:38:17 10° NNE
Cosmos 2219 3.1 00:32:41 79° E 00:32:41 79° E 00:38:13 10° NNE
Cosmos 1627 Rocket 4.5 00:27:19 10° N 00:33:30 74° E 00:34:25 63° SE
Cosmos 1980 3.6 00:29:07 10° NNW 00:34:48 89° NW 00:34:48 89° NW
Cosmos 2333 Rocket 3.7 00:32:36 10° NW 00:35:43 25° WNW 00:35:43 25° WNW
MOZ.5/SAFIR/RUBIN 5/SL-8 4.0 00:38:18 69° N 00:38:18 69° N 00:42:32 10° NNW
Cosmos 1626 4.3 00:39:04 10° NNE 00:41:57 21° ENE 00:42:03 21° ENE
Cosmos 2237 Rocket 2.0 00:38:57 10° NNW 00:44:32 81° W 00:44:32 81° W
Helios 1B rocket 4.3 00:51:05 10° NNW 00:53:28 22° NW 00:53:28 22° NW
Cosmos 1538 Rocket 4.0 00:55:21 10° NNW 00:59:58 63° WNW 00:59:58 63° WNW
SL-16 R/B 2.4 00:59:59 58° S 01:01:19 82° WSW 01:07:36 10° NNW
In-Cosmos 22 4.5 00:56:02 10° NNW 01:01:07 50° W 01:01:07 50° W
USA 215 3.4 00:58:59 10° NE 01:05:26 57° SE 01:06:48 49° S
Cosmos 1428 Rocket 4.4 01:01:26 10° NNW 01:07:40 70° W 01:08:43 59° SW
Cosmos 1092 Rocket 4.3 01:06:25 10° NNW 01:12:17 44° W 01:12:41 44° W
Cosmos 1805 3.9 01:13:32 51° NNW 01:13:32 51° NNW 01:16:34 10° N
Resurs 1-4 Rocket 2.0 01:08:36 10° N 01:13:52 71° WNW 01:14:25 65° WSW
Okean 1 Rocket 3.4 01:18:56 53° NW 01:18:56 53° NW 01:22:46 10° N
Meteor 1-15 Rocket 4.3 01:17:58 54° WSW 01:18:40 58° WNW 01:24:13 10° N
SL-14 R/B 3.8 01:15:24 10° N 01:19:15 53° E 01:19:22 53° E
Cosmos 2227 Rocket 2.3 01:19:04 53° WSW 01:20:02 61° WNW 01:25:40 10° NNE
Cosmos 1674 4.2 01:19:37 10° NNW 01:21:38 27° NW 01:21:38 27° NW
Cosmos 1655 Rocket 4.1 01:18:32 10° N 01:24:50 74° E 01:28:01 31° SSE
Cosmos 2112 Rocket 4.5 01:20:43 10° NNW 01:25:54 59° ENE 01:29:34 19° SE
Cosmos 1733 3.5 01:27:32 59° NNW 01:27:32 59° NNW 01:30:47 10° N
UNK 4.3 01:27:34 44° WNW 01:27:34 44° WNW 01:31:30 10° NNW
AQUA 3.7 01:23:29 10° N 01:28:15 75° WNW 01:28:45 67° SW
Cosmos 1937 Rocket 4.4 01:29:32 31° SSE 01:31:26 43° ESE 01:36:27 10° NNE
CBERS-1 4.0 01:27:48 10° NNE 01:32:57 79° ESE 01:34:16 50° S
Cosmos 1758 4.4 01:34:06 33° SE 01:35:08 39° E 01:38:54 10° NNE
NOSS 3-1 (C) 3.6 01:33:35 42° S 01:35:08 55° ESE 01:41:08 10° NE
USA 267 4.2 01:30:57 10° E 01:37:12 49° NNE 01:43:26 10° NW
Cosmos 1898 Rocket 3.7 01:35:45 45° S 01:37:15 67° ESE 01:42:27 10° NNE
ARIANE 5 R/B 3.5 01:34:56 10° NNE 01:39:55 43° E 01:42:41 24° SSE
SJ 16-02 1.3 01:40:06 63° WSW 01:40:29 67° WNW 01:44:54 10° NNE
Cosmos 2082 3.7 01:39:45 49° SW 01:41:16 72° WNW 01:46:54 10° NNE
Meteor 2-19 Rocket 4.3 01:35:40 10° N 01:41:50 80° W 01:44:42 34° S
ATLAS 3B CENTAUR R/B 4.2 01:40:21 31° SSW 01:42:18 33° SSW 01:48:58 10° SE
Cosmos 1680 Rocket 3.4 01:38:08 10° NNW 01:43:24 85° WSW 01:45:53 32° SSE
Cosmos 1726 4.1 01:41:52 19° SE 01:43:26 25° E 01:46:29 10° NE
Cosmos 990 Rocket 3.9 01:44:13 48° SSW 01:45:43 85° ESE 01:50:57 10° NNE
IDEFIX/ARIANE 42P 3.9 01:44:32 10° NNE 01:49:16 34° E 01:53:08 14° SSE
Cosmos 1340 Rocket 3.1 01:48:30 46° SSE 01:49:25 61° E 01:53:20 10° NNE
DNEPR-1 R/B 4.0 01:44:21 10° NW 01:49:41 47° WSW 01:49:48 47° WSW
Cosmos 1455 Rocket 2.9 01:51:23 54° SSW 01:52:22 85° W 01:56:51 10° N
SL-08 R/B 3.6 01:49:38 18° SSE 01:53:18 70° ENE 01:58:15 10° N
Cosmos 1461 2.9 01:52:47 58° SW 01:53:37 80° NW 01:58:10 10° NNE
SL-16 R/B 2.2 01:48:21 10° NNW 01:53:58 62° WSW 01:56:45 30° S
SL-4 R/B 1.5 01:54:33 61° NW 01:55:04 81° NE 01:58:27 10° ESE
OPS 8737 4.3 01:55:16 82° SW 01:55:24 88° WNW 01:58:32 10° NE
CZ-2D R/B 3.1 01:51:27 10° N 01:56:17 33° WNW 01:57:49 28° W
IRS-1D 3.6 01:51:54 10° N 01:56:53 62° WNW 01:58:31 41° SW
Meteor 1-24 Rocket 3.7 01:51:48 10° NNW 01:57:08 56° W 01:58:47 39° SSW
Cosmos 1953 3.7 01:55:00 19° SE 01:57:16 35° E 02:00:57 10° NNE
NPP 4.5 01:52:51 10° N 01:57:45 37° WNW 01:59:17 31° W
ADEOS II 2.1 01:54:12 10° N 01:59:26 70° WNW 02:01:26 38° SW
CZ-2D R/B 4.4 01:58:22 10° NNE 02:02:13 42° E 02:04:19 23° SSE
Cosmos 1892 Rocket 3.7 01:57:54 10° NNW 02:02:15 52° W 02:03:00 46° SW
CZ-4B R/B 3.8 01:58:04 10° N 02:02:37 46° WNW 02:03:51 37° WSW
Meteor 2-5 Rocket 4.3 01:59:43 10° NNW 02:04:49 37° W 02:05:59 33° WSW
USA 229 DEB 3.6 02:05:21 31° SSW 02:08:45 83° SE 02:15:37 10° NE
USA 229 3.6 02:05:27 31° SSW 02:08:50 82° SE 02:15:41 10° NE
Cosmos 2263 Rocket 2.8 02:07:55 21° S 02:11:28 52° ESE 02:16:51 10° NE
IRS-1C 4.1 02:08:26 10° N 02:13:47 74° WNW 02:16:32 29° SSW
Cosmos 158 Rocket 4.3 02:08:43 10° NNW 02:13:50 46° WSW 02:16:10 29° SSW
Cosmos 2297 Rocket 3.8 02:12:41 16° W 02:15:20 22° NW 02:19:41 10° N
Cosmos 1626 3.5 02:14:05 10° NW 02:16:34 24° WNW 02:16:34 24° WNW
NOSS 2-3 (C) 3.8 02:17:45 32° SSW 02:19:39 65° ESE 02:24:27 10° NE
NOSS 3-1 (A) 3.4 02:16:55 27° SSW 02:19:57 71° ESE 02:26:10 10° NE
Cosmos 2098 Rocket 3.8 02:16:30 10° NNW 02:21:20 52° W 02:25:09 21° SSW
Meteor 1-28 Rocket 3.2 02:20:46 33° S 02:22:15 62° W 02:26:03 10° NNW
H-2A R/B 2.7 02:25:12 10° SSE 02:29:12 53° ENE 02:33:12 10° N
Timation 1 Rocket 4.3 02:26:52 25° SW 02:30:28 74° WNW 02:36:28 10° NNE
Cosmos 1470 3.6 02:32:06 28° WSW 02:33:09 33° WNW 02:36:47 10° N
Cosmos 1603 3.9 02:27:56 10° NNW 02:33:43 78° ENE 02:39:24 10° SSE
Cosmos 1544 Rocket 4.2 02:37:12 26° SW 02:39:08 39° WNW 02:43:20 10° N
SeaSat 1 3.2 02:35:13 10° NE 02:40:00 48° ESE 02:44:41 10° S
Spot 4 Rocket 4.0 02:40:26 10° N 02:45:34 70° WNW 02:49:45 16° SSW
SL-16 R/B 4.3 02:45:05 12° W 02:45:48 13° W 02:48:24 10° WNW
USA 215 3.8 02:42:05 10° NE 02:48:23 51° NNW 02:54:08 12° W
FALCON 9 DEB 3.0 02:46:11 10° WNW 02:49:39 73° SW 02:53:06 10° SE
Resurs 1-4 Rocket 4.3 02:51:33 10° NW 02:52:43 11° NW 02:53:53 10° WNW
Cosmos 1553 Rocket 4.1 02:47:38 10° S 02:53:40 76° E 02:59:46 10° N
Cosmos 1602 Rocket 3.8 02:55:36 10° NNW 02:59:49 48° W 03:03:58 10° SSW
Cosmos 1943 3.1 02:54:13 10° NNW 02:59:51 79° WSW 03:05:27 10° SSE
Cosmos 1606 Rocket 4.1 02:57:12 10° S 03:01:36 61° E 03:06:01 10° NNE
Cosmos 1745 Rocket 4.4 02:58:31 10° N 03:04:49 68° E 03:11:00 10° SSE
Cosmos 2227 Rocket 4.4 03:03:00 10° WNW 03:05:19 12° NW 03:07:37 10° NNW
OAO 3 Rocket 4.5 03:04:41 14° SW 03:07:55 27° S 03:12:04 10° ESE
Meteor 2-16 Rocket 4.5 03:03:38 10° NNW 03:09:43 65° W 03:15:47 10° S
Cosmos 2084 4.4 03:07:15 10° SSW 03:11:26 46° ESE 03:15:41 10° NE
ERS-2 2.2 03:10:12 10° S 03:13:46 56° WSW 03:17:23 10° NNW
MSX 4.0 03:10:46 10° N 03:16:26 62° WNW 03:22:07 10° SSW
CZ-2C R/B 3.3 03:13:51 10° N 03:17:30 40° WNW 03:21:02 10° SW
Cosmos 2150 Rocket 4.0 03:12:27 10° SSW 03:17:35 72° WNW 03:22:49 10° NNE
NOSS 2-3 (E) 4.4 03:14:35 13° WSW 03:18:14 41° NW 03:23:02 10° NNE
Cosmos 1726 3.6 03:16:22 13° WSW 03:18:36 20° WNW 03:21:25 10° NNW
ARIANE 5 R/B 3.8 03:14:29 10° N 03:18:47 26° WNW 03:23:01 10° WSW
Cosmos 1726 Rocket 3.8 03:14:44 10° S 03:19:10 74° E 03:23:38 10° NNE
CZ-4B R/B 2.3 03:16:34 10° SSE 03:19:47 51° ENE 03:22:55 10° N
USA 267 3.3 03:13:39 10° SE 03:20:06 61° SW 03:26:35 10° NW
S3M 4.1 03:14:50 10° S 03:21:13 89° E 03:27:39 10° N
Meteor 1-11 4.3 03:17:38 10° N 03:23:26 90° W 03:29:08 10° S
CZ-4C R/B 3.7 03:20:50 10° SSW 03:23:40 29° W 03:26:34 10° NW
IDEFIX/ARIANE 42P 3.5 03:24:13 10° N 03:28:46 32° WNW 03:33:20 10° SW
PSLV R/B 3.6 03:25:04 10° N 03:29:26 71° WNW 03:33:47 10° SSW
Cosmos 1908 3.9 03:26:30 10° SSW 03:30:11 38° WNW 03:33:52 10° N
Landsat 5 4.1 03:28:23 10° SSW 03:31:52 31° W 03:35:27 10° NNW
ADEOS 4.0 03:26:39 10° NNE 03:31:52 66° ESE 03:37:02 10° S
Cosmos 1953 4.0 03:30:58 10° WSW 03:33:47 18° WNW 03:36:38 10° NNW
SL-4 R/B 3.3 03:32:20 10° W 03:34:09 14° SW 03:35:58 10° SSW
Cosmos 1356 Rocket 3.4 03:30:09 10° S 03:34:23 88° W 03:38:34 10° N
ATLAS CENTAUR R/B 1.5 03:30:38 10° SSW 03:34:50 74° ESE 03:38:48 10° NE
CZ-2C R/B 2.2 03:31:31 10° N 03:36:06 75° WNW 03:40:42 10° SSW
deb Chang Zheng 4 3.6 03:32:55 10° NNE 03:37:17 89° E 03:41:39 10° SSW
ADEOS II 4.2 03:37:12 10° NW 03:38:10 10° NW 03:39:08 10° WNW
